Location: Zlin
(49.2333°N, 17.6667°E)
Time: 01:52:53
(UTC+01:00)

ISS - Visible Passes

Search period start: 23 January 2019 00:00
Search period end: 02 February 2019 00:00
Orbit: 404 x 411 km, 51.6° (Epoch: 23 January)

Date Brightness Start Highest point End Pass type
(mag) Time Alt. Az. Time Alt. Az. Time Alt. Az.
23 Jan -2.1 18:39:14 10° SSW 18:41:04 24° S 18:41:04 24° S visible
24 Jan -2.0 17:48:33 10° S 17:51:00 19° SE 17:52:03 17° ESE visible
24 Jan -1.0 19:23:52 10° WSW 19:24:46 17° WSW 19:24:46 17° WSW visible
25 Jan -3.5 18:32:36 10° SW 18:35:40 55° SSE 18:35:40 55° SSE visible
26 Jan -2.9 17:41:29 10° SW 17:44:33 37° SSE 17:46:30 18° E visible
26 Jan -1.5 19:17:42 10° W 19:19:13 25° W 19:19:13 25° W visible
27 Jan -3.9 18:26:16 10° WSW 18:29:34 86° NNW 18:30:00 65° ENE visible
28 Jan -3.7 17:34:54 10° WSW 17:38:10 68° SSE 17:40:44 16° ENE visible
28 Jan -1.9 19:11:33 10° W 19:13:26 30° WNW 19:13:26 30° WNW visible
29 Jan -3.6 18:20:03 10° W 18:23:20 62° N 18:24:08 44° NE visible
29 Jan -0.2 19:56:50 10° WNW 19:56:51 10° WNW 19:56:51 10° WNW visible
30 Jan -3.8 17:28:33 10° WSW 17:31:51 77° NNW 17:34:49 13° ENE visible
30 Jan -2.3 19:05:21 10° WNW 19:07:31 35° NW 19:07:31 35° NW visible
31 Jan -3.5 18:13:50 10° W 18:17:05 54° N 18:18:11 35° ENE visible
31 Jan -0.4 19:50:30 10° WNW 19:50:54 13° WNW 19:50:54 13° WNW visible
01 Feb -3.5 17:22:18 10° W 17:25:34 58° N 17:28:50 10° ENE visible
01 Feb -2.9 18:59:03 10° WNW 19:01:34 46° NW 19:01:34 46° NW visible
